User: anonymous   Login
Location: Edinburgh
(55.9500°N, 3.1600°W)
Time: 20:46:48
(UTC+00:00)
Language:

Envisat - Orbit

View from above orbital plane
View from above orbital plane
View from above satellite
View from above satellite

Ground track
Ground track

The orbit data is extracted from the following two-line orbital elements,

1 27386U 02009A   17350.42359059 -.00000017  00000-0  79151-5 0  9997
2 27386  98.2094  27.8713 0001484  81.4421 278.6938 14.37910766827267
Epoch (UTC): 16 December 2017 10:09:58
Eccentricity: 0.0001484
inclination: 98.2094°
perigee height: 764 km
apogee height: 766 km
right ascension of ascending node: 27.8713°
argument of perigee: 81.4421°
revolutions per day: 14.37910766
mean anomaly at epoch: 278.6938°
orbit number at epoch: 82726

The dashed part of the orbit path shows where the satellite is in the earth's shadow,  

DLR